Location: ?
(35.2180°N, 139.6392°E)
Time: 21:11:36
(UTC+00:00)

Cosmos 1655 Rocket - Pass Details

Date: 05 August 2024
Orbit: 970 x 1005 km, 83.0° (Epoch: 18 September)

Event Time Altitude Azimuth Distance (km) Brightness Sun altitude
Rises 18:05:27 0° 345° (NNW) 3,675 7.3 -20.0°
Reaches altitude 10° 18:08:04 10° 340° (NNW) 2,727 6.6 -19.6°
Maximum altitude 18:13:54 44° 270° (W) 1,329 4.3 -18.7°
Enters shadow 18:16:39 28° 219° (SW) 1,739 4.8 -18.2°
